Location: Banios
(43.0451°N, 0.2335°E)
Time: 21:07:34
(UTC+00:00)

Cosmos 2333 Rocket - Pass Details

Date: 25 January 2021
Orbit: 838 x 863 km, 70.8° (Epoch: 02 March)

Event Time Altitude Azimuth Distance (km) Brightness Sun altitude
Exits shadow 04:28:09 19° 8° (N) 1,892 4.1 -31.5°
Drops below altitude 10° 04:29:49 10° 15° (NNE) 2,472 4.8 -31.2°
Sets 04:32:22 0° 21° (NNE) 3,414 5.6 -30.7°
